Content
SEND FEEDBACK

Daily
Averages
Monthly
Summary
United States of America

PYGA BEACH, GUAM


Home > North America > United States > Guam
Elevation: 20 feet     Latitude: 13 17N     Longitude: 144 39E

WEATHER
 
SELECT A DAY
Number of Records: 354,808;   Date Range: 1/1/95 - 11/27/14
 
SHARE

PRINT THIS DATA

[ ← Previous Day ]
WEATHER ALMANAC - MARCH 7, 2013
[ Next Day → ]
[ °C ]   °F
Weather ElementAverageHighLow
Temperature79.2 °F84.2 °F (11:46 am)76.3 °F (5:55 am)
Dewpoint72.4 °F73.6 °F (12:55 am)69.6 °F (5:55 am)
Humidity79.8 %89 % (12:34 am)66 % (11:46 am)
Barometer29.88 in29.92 in (8:55 am)29.81 in (3:55 pm)
Wind Speed16.8 mph21.9 mph (10:55 am)
Wind Gust27.6 mph (1:26 pm)
Weather ElementAverage
Visibility10 mi
Wind DirectionENE (68.7 °)

Weather ElementTotal
Precipitation---
Cooling Degree Days15.3 (Base 65)
Growing Degree Days30.3 (Base 50)
Averaged from 75 records on March 7, 2013
WEATHER CONDITIONS BREAKOUT
WIND DIRECTION BREAKOUT
WEATHER BY HOUR - MARCH 7, 2013
[ °C ]   °F
Local TimeTemperatureDewpointHumidityBarometerVisibilityWind DirectionWind SpeedGust SpeedPrecipitationEventsConditions
12:34 AM77.0 °F73.4 °F89 %29.91 in10.0 miENE (60°)12.7 mphMostly Cloudy
12:36 AM77.0 °F73.4 °F89 %29.91 in10.0 miENE (70°)13.8 mphMostly Cloudy
12:45 AM77.0 °F73.4 °F89 %29.91 in10.0 miENE (60°)13.8 mphMostly Cloudy
12:46 AM77.0 °F73.4 °F89 %29.91 in10.0 miENE (60°)15.0 mphMostly Cloudy
12:47 AM77.0 °F73.4 °F89 %29.91 in10.0 miENE (60°)15.0 mphOvercast
12:55 AM77.5 °F73.6 °F88 %29.90 in10.0 miENE (60°)16.1 mphMostly Cloudy
1:04 AM77.0 °F73.4 °F89 %29.90 in10.0 miENE (60°)17.3 mphMostly Cloudy
1:18 AM77.0 °F73.4 °F89 %29.89 in10.0 miENE (60°)16.1 mph24.2 mphMostly Cloudy
1:21 AM77.0 °F73.4 °F89 %29.89 in10.0 miENE (60°)13.8 mphMostly Cloudy
1:22 AM77.0 °F73.4 °F89 %29.89 in10.0 miENE (60°)12.7 mphOvercast
1:25 AM77.0 °F73.4 °F89 %29.89 in10.0 miENE (60°)16.1 mphMostly Cloudy
1:37 AM77.0 °F73.4 °F89 %29.89 in10.0 miENE (70°)15.0 mph24.2 mphScattered Clouds
1:38 AM77.0 °F73.4 °F89 %29.89 in10.0 miENE (70°)15.0 mph24.2 mphMostly Cloudy
1:49 AM77.0 °F73.4 °F89 %29.88 in10.0 miENE (70°)13.8 mph24.2 mphScattered Clouds
1:55 AM77.0 °F73.2 °F88 %29.88 in10.0 miENE (70°)13.8 mphMostly Cloudy
2:10 AM77.0 °F71.6 °F83 %29.88 in10.0 miENE (70°)15.0 mphMostly Cloudy
2:22 AM77.0 °F71.6 °F83 %29.87 in10.0 miENE (60°)17.3 mphMostly Cloudy
2:25 AM77.0 °F73.4 °F89 %29.87 in10.0 miENE (60°)16.1 mphMostly Cloudy
2:36 AM77.0 °F73.4 °F89 %29.86 in10.0 miENE (60°)12.7 mphMostly Cloudy
2:37 AM77.0 °F73.4 °F89 %29.86 in10.0 miENE (60°)16.1 mph21.9 mphMostly Cloudy
2:45 AM77.0 °F73.4 °F89 %29.86 in10.0 miENE (60°)16.1 mph21.9 mphMostly Cloudy
2:50 AM77.0 °F73.4 °F89 %29.86 in10.0 miENE (60°)15.0 mphMostly Cloudy
2:53 AM77.0 °F73.4 °F89 %29.86 in10.0 miENE (70°)17.3 mph23.0 mphScattered Clouds
2:55 AM77.0 °F72.9 °F87 %29.86 in10.0 miENE (70°)17.3 mph23.0 mphScattered Clouds
3:26 AM77.0 °F73.4 °F89 %29.85 in10.0 miENE (70°)16.1 mphMostly Cloudy
3:55 AM77.2 °F72.5 °F85 %29.85 in10.0 miENE (60°)15.0 mphOvercast
4:46 AM77.0 °F71.6 °F83 %29.85 in10.0 miENE (60°)16.1 mphMostly Cloudy
4:55 AM76.5 °F70.9 °F83 %29.85 in10.0 miENE (60°)17.3 mphScattered Clouds
5:55 AM76.3 °F69.6 °F80 %29.87 in10.0 miENE (70°)17.3 mphPartly Cloudy
6:09 AM77.0 °F69.8 °F78 %29.87 in10.0 miENE (70°)16.1 mphMostly Cloudy
6:14 AM77.0 °F69.8 °F78 %29.88 in10.0 miENE (70°)17.3 mphScattered Clouds
6:17 AM77.0 °F71.6 °F83 %29.88 in10.0 miENE (70°)13.8 mphMostly Cloudy
6:28 AM77.0 °F69.8 °F78 %29.88 in10.0 miENE (70°)16.1 mphScattered Clouds
6:55 AM76.8 °F70.9 °F82 %29.89 in10.0 miENE (60°)16.1 mph24.2 mphPartly Cloudy
7:55 AM78.4 °F70.0 °F75 %29.91 in10.0 miENE (70°)19.6 mphPartly Cloudy
8:55 AM80.8 °F70.9 °F72 %29.92 in10.0 miEast (80°)20.7 mphScattered Clouds
9:55 AM82.0 °F71.2 °F70 %29.92 in10.0 miEast (80°)20.7 mph26.5 mphPartly Cloudy
10:55 AM82.8 °F72.3 °F71 %29.91 in10.0 miENE (70°)21.9 mph26.5 mphScattered Clouds
11:38 AM82.4 °F73.4 °F74 %29.89 in10.0 miENE (70°)18.4 mphMostly Cloudy
11:41 AM82.4 °F73.4 °F74 %29.89 in10.0 miEast (80°)19.6 mphScattered Clouds
11:46 AM84.2 °F71.6 °F66 %29.89 in10.0 miENE (70°)20.7 mphMostly Cloudy
11:53 AM84.2 °F71.6 °F66 %29.89 in10.0 miEast (80°)20.7 mphScattered Clouds
11:55 AM84.2 °F72.5 °F68 %29.89 in10.0 miEast (80°)16.1 mph24.2 mphScattered Clouds
12:06 PM84.2 °F73.4 °F70 %29.88 in10.0 miEast (80°)17.3 mphMostly Cloudy
12:10 PM84.2 °F73.4 °F70 %29.88 in10.0 miEast (80°)17.3 mphScattered Clouds
12:32 PM84.2 °F73.4 °F70 %29.87 in10.0 miEast (80°)18.4 mph23.0 mphMostly Cloudy
12:37 PM84.2 °F73.4 °F70 %29.87 in10.0 miEast (80°)17.3 mph23.0 mphScattered Clouds
12:42 PM84.2 °F73.4 °F70 %29.86 in10.0 miENE (70°)19.6 mph24.2 mphMostly Cloudy
12:55 PM84.0 °F73.0 °F69 %29.86 in10.0 miEast (80°)18.4 mph26.5 mphMostly Cloudy
1:20 PM84.2 °F73.4 °F70 %29.85 in10.0 miEast (80°)17.3 mph26.5 mphScattered Clouds
1:26 PM84.2 °F73.4 °F70 %29.84 in10.0 miENE (70°)20.7 mph27.6 mphMostly Cloudy
1:55 PM83.8 °F72.9 °F69 %29.83 in10.0 miEast (80°)19.6 mphMostly Cloudy
1:58 PM84.2 °F73.4 °F70 %29.83 in10.0 miENE (70°)19.6 mphScattered Clouds
2:55 PM83.7 °F72.5 °F69 %29.82 in10.0 miEast (80°)20.7 mph27.6 mphPartly Cloudy
3:55 PM82.8 °F72.7 °F71 %29.81 in10.0 miEast (80°)19.6 mphPartly Cloudy
4:55 PM81.5 °F72.7 °F74 %29.81 in10.0 miENE (70°)18.4 mphScattered Clouds
5:55 PM79.7 °F72.7 °F79 %29.82 in10.0 miEast (80°)16.1 mphPartly Cloudy
6:49 PM78.8 °F71.6 °F78 %29.84 in10.0 miENE (70°)17.3 mph25.3 mphMostly Cloudy
6:55 PM78.6 °F72.5 °F81 %29.84 in10.0 miENE (60°)13.8 mphMostly Cloudy
7:15 PM78.8 °F71.6 °F78 %29.85 in10.0 miENE (60°)17.3 mph26.5 mphScattered Clouds
7:29 PM78.8 °F71.6 °F78 %29.86 in10.0 miENE (60°)19.6 mph26.5 mphMostly Cloudy
7:32 PM78.8 °F71.6 °F78 %29.86 in10.0 miENE (60°)19.6 mph26.5 mphScattered Clouds
7:55 PM78.3 °F72.0 °F81 %29.87 in10.0 miENE (70°)13.8 mphScattered Clouds
8:55 PM78.3 °F72.3 °F82 %29.89 in10.0 miENE (70°)15.0 mph23.0 mphScattered Clouds
8:56 PM78.8 °F71.6 °F78 %29.89 in10.0 miENE (70°)16.1 mphMostly Cloudy
9:14 PM78.8 °F71.6 °F78 %29.90 in10.0 miENE (70°)16.1 mphScattered Clouds
9:21 PM78.8 °F71.6 °F78 %29.90 in10.0 miENE (60°)17.3 mphMostly Cloudy
9:34 PM78.8 °F71.6 °F78 %29.91 in10.0 miENE (60°)17.3 mphScattered Clouds
9:55 PM78.1 °F71.8 °F81 %29.91 in10.0 miENE (70°)15.0 mphScattered Clouds
10:04 PM78.8 °F71.6 °F78 %29.91 in10.0 miENE (70°)15.0 mphMostly Cloudy
10:35 PM78.8 °F71.6 °F78 %29.91 in10.0 miENE (70°)18.4 mph26.5 mphScattered Clouds
10:55 PM78.1 °F70.9 °F78 %29.91 in10.0 miEast (80°)18.4 mphClear
11:44 PM78.8 °F71.6 °F78 %29.91 in10.0 miENE (70°)15.0 mphMostly Cloudy
11:47 PM78.8 °F71.6 °F78 %29.91 in10.0 miENE (70°)16.1 mphScattered Clouds
11:55 PM77.9 °F71.4 °F80 %29.91 in10.0 miENE (70°)13.8 mphScattered Clouds
Hourly data recorded from PGUA, located miles away from Pyga Beach, Guam







STORIES FROM OUR PARTNERS